Concordia, KS

11:09 AM CDT on April 28, 2017 (GMT -0500)
Blosser Municipal

Weather History for KCNK - March, 2014

Change the Weather History Date:

Tuesday, March 25, 2014

  Actual Average Record
Temperature  
Mean Temperature 35 °F 46 °F  
Max Temperature 44 °F 58 °F 92 °F (1907)
Min Temperature 25 °F 34 °F 8 °F (1996)
Degree Days  
Heating Degree Days 30 19  
Month to date heating degree days 693 577  
Since 1 July heating degree days 5175 4784  
Cooling Degree Days 0 0  
Month to date cooling degree days 0 0  
Year to date cooling degree days 0 0  
Moisture  
Dew Point 14 °F    
Average Humidity 48    
Maximum Humidity 69    
Minimum Humidity 27    
Precipitation  
Precipitation 0.00 in 0.08 in 1.42 in (1891)
Month to date precipitation 0.22 1.52  
Year to date precipitation 1.41 2.89  
Snow  
Snow 0.00 in 0.10 in 2.20 in (1971)
Month to date snowfall 2.2 2.2  
Year to date snowfall 16.9 12.6  
Since 1 July snowfall 23.2 19.1  
Snow Depth 0.00 in    
Sea Level Pressure  
Sea Level Pressure 30.33 in    
Wind  
Wind Speed 11 mph (NW)    
Max Wind Speed 20 mph    
Max Gust Speed 25 mph    
Visibility 10 miles    
Events      
T = Trace of Precipitation, MM = Missing Value Source: NWS Daily Summary

Daily Weather History Graph

Daily Weather History Graph

Search for Another Location

Airport or City:

Trip Planner

Search our weather history database for the weather conditions in past years. The results will help you decide how hot, cold, wet, or windy it might be!

Date:

Astronomy

Mar. 25, 2014 Rise Set
Actual Time 7:25 AM CDT 7:47 PM CDT
Civil Twilight 6:59 AM CDT 8:14 PM CDT
Nautical Twilight 6:27 AM CDT 8:46 PM CDT
Astronomical Twilight 5:55 AM CDT 9:18 PM CDT
Moon 3:47 AM CDT (3/25) 2:21 PM CDT (3/25)
Length of Visible Light 13h 15m
Length of Day
12h 21m
Waning Crescent, 32% of the Moon is Illuminated
Mar 25
Waning Crescent
Mar 30
New
Apr 7
First Quarter
Apr 15
Full
Apr 22
Last Quarter

Hourly Weather History & Observations

Time (CDT) Temp. Windchill Dew Point Humidity Pressure Visibility Wind Dir Wind Speed Gust Speed Precip Events Conditions
12:55 AM 28.9 °F 22.8 °F 17.1 °F 61% 30.31 in 10.0 mi NNW 5.8 mph - N/A   Partly Cloudy
1:55 AM 28.9 °F 22.8 °F 19.0 °F 67% 30.32 in 10.0 mi WNW 5.8 mph - N/A   Overcast
2:55 AM 30.0 °F 21.7 °F 19.0 °F 64% 30.35 in 10.0 mi West 9.2 mph - N/A   Overcast
3:55 AM 32.0 °F 23.0 °F 21.0 °F 64% 30.36 in 10.0 mi NNW 11.5 mph 21.9 mph N/A   Overcast
4:55 AM 32.0 °F 22.5 °F 18.0 °F 56% 30.38 in 10.0 mi North 12.7 mph - N/A   Overcast
5:55 AM 30.0 °F 18.3 °F 16.0 °F 56% 30.40 in 10.0 mi North 17.3 mph 23.0 mph N/A   Overcast
6:55 AM 27.0 °F 16.1 °F 14.0 °F 58% 30.43 in 10.0 mi NNW 12.7 mph - N/A   Partly Cloudy
7:55 AM 25.0 °F 14.8 °F 14.0 °F 63% 30.45 in 10.0 mi NNW 10.4 mph - N/A   Clear
8:55 AM 28.0 °F 17.5 °F 15.1 °F 58% 30.47 in 10.0 mi NNW 12.7 mph - N/A   Clear
9:55 AM 30.9 °F 20.2 °F 12.9 °F 47% 30.47 in 10.0 mi NNW 15.0 mph 23.0 mph N/A   Clear
10:55 AM 33.1 °F 23.4 °F 10.9 °F 40% 30.48 in 10.0 mi NNW 13.8 mph - N/A   Clear
11:55 AM 35.1 °F 27.9 °F 9.0 °F 34% 30.46 in 10.0 mi WNW 9.2 mph - N/A   Clear
12:55 PM 37.0 °F 28.1 °F 10.0 °F 33% 30.42 in 10.0 mi NW 15.0 mph - N/A   Partly Cloudy
1:55 PM 39.0 °F 32.3 °F 10.0 °F 30% 30.38 in 10.0 mi WNW 10.4 mph - N/A   Clear
2:55 PM 41.0 °F 35.8 °F 10.9 °F 29% 30.34 in 10.0 mi WNW 8.1 mph - N/A   Clear
3:55 PM 43.0 °F - 10.9 °F 27% 30.29 in 10.0 mi North - - N/A   Clear
4:55 PM 43.0 °F 39.5 °F 10.9 °F 27% 30.25 in 10.0 mi West 5.8 mph - N/A   Clear
5:55 PM 43.0 °F 41.3 °F 12.0 °F 28% 30.24 in 10.0 mi Variable 3.5 mph - N/A   Clear
6:55 PM 43.0 °F 38.8 °F 10.9 °F 27% 30.23 in 10.0 mi SW 6.9 mph - N/A   Clear
7:55 PM 37.9 °F 33.5 °F 10.9 °F 33% 30.21 in 10.0 mi South 5.8 mph - N/A   Clear
8:55 PM 32.0 °F 25.6 °F 12.0 °F 44% 30.19 in 10.0 mi SSE 6.9 mph - N/A   Clear
9:55 PM 32.0 °F 22.5 °F 14.0 °F 48% 30.18 in 10.0 mi SE 12.7 mph - N/A   Clear
10:55 PM 32.0 °F 21.6 °F 15.1 °F 50% 30.17 in 10.0 mi SE 15.0 mph - N/A   Clear
11:55 PM 30.9 °F 21.7 °F 15.1 °F 52% 30.15 in 10.0 mi SE 11.5 mph - N/A   Clear